Temp
49 43 41 43 46 48 47 44 44 48 56 54 50 50 54 55 55 57 58 58 60 63 68 69 71 70 69 68 70 71 69 68 68 67 65 63 64 65 64 66 65 64 66 64
44 41 47 50 49 48 47 43 42 50 55 51 48 47 53 57 58 58 59 60 60 62 66 69 69 68 68 69 68 69 70 68 69 69 68 68 67 65 66 66 65 65 65 65
42 46 52 50 47 45 45 43 43 45 49 48 45 44 48 53 58 61 61 62 63 64 65 66 67 65 64 64 64 68 69 70 70 70 68 64 63 62 62 64 65 65 66 65
44 51 49 47 45 47 40 48 48 44 41 35 44 30 42 49 53 55 58 61 62 62 65 66 67 66 65 64 64 66 67 67 70 69 66 65 65 63 66 66 67 66 66 66
42 45 45 44 46 49 44 50 47 44 38 35 35 33 36 46 46 52 55 58 59 64 63 64 61 64 63 63 62 63 64 65 67 68 68 65 64 66 67 66 63 64 65 66
46 51 51 48 52 51 49 45 44 44 38 30 37 36 33 44 51 54 55 58 59 60 58 60 61 63 62 61 60 61 63 64 65 65 64 64 65 65 64 63 63 63 64 65
38 42 45 51 44 47 50 41 30 28 28 28 38 35 42 46 51 54 57 56 57 57 57 58 58 58 59 58 59 60 60 61 61 61 61 61 62 64 65 65 65 64 62 63
35 32 41 48 45 42 45 43 28 20 23 26 35 30 38 50 54 54 55 58 56 54 55 56 56 57 59 60 59 60 59 59 60 60 60 60 59 59 62 66 67 67 66 66
35 35 41 46 49 50 40 38 44 31 20 24 30 36 46 50 52 51 53 54 51 53 54 55 56 57 58 57 58 59 59 58 59 58 58 58 59 59 58 60 62 66 68 68
40 31 39 43 47 48 46 48 35 34 21 16 27 29 35 42 47 51 50 52 50 52 54 55 56 56 55 55 56 56 57 57 57 57 57 57 57 58 58 58 58 60 64 66
43 38 35 41 38 40 41 39 40 39 31 26 22 29 44 50 49 50 49 50 50 51 53 53 53 54 54 54 54 54 55 55 55 55 55 54 55 56 56 56 57 59 60 62
44 37 32 36 36 39 45 41 40 34 30 33 30 30 47 48 50 50 49 51 51 52 51 51 52 53 53 52 52 52 53 53 53 54 53 53 54 54 54 56 57 56 57 59
44 35 28 31 36 40 38 42 44 43 36 32 29 34 54 51 48 49 50 49 50 51 50 50 50 51 51 51 51 51 51 52 52 52 51 51 51 52 53 54 55 56 56 57
48 36 36 32 36 38 35 40 42 41 34 35 34 39 47 46 47 46 47 50 48 49 51 50 48 49 49 50 50 50 50 50 50 50 49 48 48 50 51 52 52 52 53 53
42 35 33 38 35 40 38 38 39 37 39 35 40 38 45 50 46 47 48 46 48 49 50 49 48 47 49 49 49 50 49 49 49 48 47 46 47 48 48 48 49 49 49 50
42 33 37 28 33 34 34 37 38 39 40 40 42 41 53 55 48 48 49 48 49 51 51 51 50 49 49 50 48 49 48 48 47 46 45 45 45 44 44 45 45 45 46 47
37 35 32 30 30 28 28 33 37 39 42 42 36 44 52 50 48 48 47 51 53 52 52 49 50 49 49 48 49 47 47 46 44 43 42 42 41 40 40 40 41 41 42 43
36 35 34 30 30 22 37 41 43 40 43 45 46 48 51 51 54 50 52 54 52 50 50 51 49 48 48 47 46 46 45 43 41 39 39 38 37 37 36 36 36 38 39 39
41 37 30 27 28 28 33 36 36 35 38 45 45 48 50 51 46 46 52 49 51 51 50 50 49 48 47 46 46 44 41 39 37 36 36 35 35 34 35 34 34 35 36 36
37 40 33 26 23 22 33 38 42 43 31 44 45 46 47 47 37 47 50 51 52 49 48 47 45 45 44 45 43 40 38 37 36 36 36 35 35 34 34 34 35 35 34 35
31 31 29 24 23 21 33 37 44 26 33 42 46 47 46 41 47 51 48 48 47 45 43 44 45 44 44 41 39 38 37 36 38 37 36 35 34 33 33 34 34 34 34 35
30 28 28 23 22 22 35 37 37 41 38 41 42 40 40 41 43 43 44 43 44 44 43 42 39 38 38 38 36 36 35 37 36 35 36 35 34 34 34 33 35 34 32 33
28 32 27 32 31 37 36 38 41 41 41 38 39 39 41 41 40 41 40 39 39 38 36 36 36 35 35 36 35 35 36 36 36 36 37 37 35 34 34 33 34 34 35 34
32 36 30 32 34 36 39 39 39 38 36 34 34 33 35 35 32 31 31 32 32 33 33 32 33 33 32 32 33 33 35 34 35 35 37 37 37 36 35 36 35 34 34 34
32 36 31 29 33 36 30 28 32 29 28 27 28 28 28 29 28 28 29 30 30 31 32 31 31 31 31 31 30 29 32 32 33 34 35 36 36 35 35 34 34 35 36 36
31 30 33 29 32 34 26 25 29 26 24 24 24 24 26 26 26 26 26 27 27 26 27 26 26 26 25 25 26 27 29 29 29 30 32 34 34 35 34 33 33 38 38 38
MSLP
1019.17 1019.40 1018.80 1019.34 1019.63 1019.66 1019.65 1019.73 1019.30 1018.41 1017.64 1017.77 1017.60 1017.54 1017.04 1016.76 1016.98 1016.87 1016.49 1016.36 1016.07 1015.50 1014.65 1014.53 1014.35 1014.31 1014.49 1014.83 1015.24 1015.62 1016.33 1016.90 1017.52 1018.07 1018.58 1019.01 1019.01 1019.34 1019.53 1019.42 1019.74 1019.99 1020.16 1020.44
1019.24 1018.40 1019.05 1019.41 1019.62 1019.82 1019.77 1019.84 1019.47 1018.80 1018.04 1018.09 1017.94 1017.82 1017.39 1016.59 1016.33 1016.47 1016.30 1015.78 1015.48 1015.30 1014.80 1014.23 1014.09 1014.13 1014.33 1014.35 1014.74 1015.14 1015.49 1015.99 1016.45 1016.88 1017.33 1017.85 1018.29 1018.56 1018.82 1018.97 1019.13 1019.14 1019.33 1019.57
1018.05 1017.86 1018.38 1018.91 1019.21 1019.54 1019.66 1019.64 1019.52 1019.39 1018.72 1018.51 1018.52 1017.82 1017.29 1016.45 1015.49 1015.30 1015.34 1015.17 1014.90 1014.61 1014.35 1014.08 1013.95 1014.07 1014.23 1014.41 1014.52 1014.29 1014.47 1014.86 1015.43 1016.02 1016.85 1017.48 1017.87 1018.06 1018.03 1017.95 1018.15 1018.15 1018.52 1018.80
1018.07 1017.92 1017.92 1018.22 1018.57 1019.04 1019.40 1019.41 1019.59 1019.78 1019.95 1019.77 1019.35 1018.26 1017.10 1016.32 1015.59 1014.91 1014.46 1014.30 1014.22 1014.20 1013.66 1013.63 1013.59 1013.78 1014.03 1014.06 1014.00 1014.08 1014.17 1014.46 1014.97 1015.55 1016.28 1016.73 1017.03 1017.26 1017.05 1017.37 1017.49 1017.54 1017.63 1017.70
1016.66 1017.06 1017.61 1017.82 1017.67 1018.39 1018.74 1019.10 1019.76 1020.16 1020.58 1020.67 1020.48 1020.46 1016.80 1016.25 1015.75 1014.62 1013.73 1013.37 1013.19 1013.13 1013.30 1013.59 1013.86 1013.83 1014.05 1014.00 1014.14 1014.04 1014.17 1014.56 1014.70 1015.05 1015.51 1016.07 1016.45 1016.50 1016.49 1016.73 1016.82 1016.93 1017.03 1017.14
1016.61 1016.18 1016.52 1016.43 1017.31 1017.82 1018.55 1019.49 1020.41 1020.90 1021.65 1021.46 1020.74 1020.82 1016.45 1016.06 1014.90 1013.80 1013.23 1012.81 1012.58 1012.87 1013.59 1014.03 1014.02 1013.94 1014.11 1014.28 1014.45 1014.57 1014.59 1014.70 1014.79 1015.18 1015.55 1015.80 1015.91 1016.00 1016.15 1016.27 1016.37 1016.30 1016.27 1016.33
1016.81 1016.48 1016.28 1016.12 1017.08 1017.61 1017.98 1019.42 1021.27 1022.32 1022.51 1021.03 1019.96 1020.14 1015.72 1015.16 1014.22 1013.69 1013.07 1013.06 1013.20 1013.56 1013.91 1014.10 1014.17 1014.23 1014.45 1014.69 1014.72 1014.87 1015.00 1015.09 1015.07 1015.23 1015.52 1015.78 1015.86 1015.75 1015.62 1015.55 1015.52 1015.56 1015.62 1015.52
1016.13 1016.71 1016.07 1015.58 1015.63 1016.35 1017.48 1018.45 1019.58 1021.08 1021.69 1021.27 1020.50 1018.48 1015.63 1014.02 1013.56 1013.06 1012.68 1013.11 1013.71 1014.25 1014.17 1014.39 1014.50 1014.52 1014.69 1014.79 1014.97 1015.08 1015.20 1015.35 1015.37 1015.39 1015.44 1015.43 1015.53 1015.67 1015.47 1015.05 1014.81 1014.64 1014.43 1014.23
1015.37 1015.66 1015.46 1015.70 1015.55 1015.97 1017.18 1017.68 1018.80 1020.10 1021.66 1021.40 1019.44 1017.26 1015.26 1014.06 1013.67 1013.36 1013.49 1013.71 1014.31 1014.53 1014.59 1014.67 1014.75 1014.70 1014.93 1015.14 1015.25 1015.37 1015.44 1015.49 1015.56 1015.50 1015.37 1015.27 1015.16 1015.07 1015.04 1014.80 1014.59 1014.23 1013.78 1013.41
1014.11 1015.51 1015.57 1015.81 1015.84 1015.79 1015.97 1017.49 1018.79 1019.41 1020.93 1020.83 1018.74 1017.31 1015.08 1013.98 1013.66 1013.25 1013.69 1013.98 1014.46 1014.55 1014.48 1014.64 1014.82 1015.01 1015.24 1015.31 1015.41 1015.47 1015.55 1015.60 1015.58 1015.52 1015.46 1015.30 1015.13 1014.84 1014.59 1014.41 1014.18 1013.90 1013.51 1013.14
1013.60 1014.23 1016.18 1016.00 1015.34 1015.54 1016.42 1016.89 1017.58 1018.26 1019.27 1018.75 1018.15 1015.92 1013.61 1013.20 1013.07 1013.16 1013.40 1013.83 1014.04 1014.36 1014.39 1014.73 1015.00 1015.20 1015.31 1015.30 1015.36 1015.46 1015.51 1015.59 1015.65 1015.56 1015.50 1015.34 1015.10 1014.80 1014.53 1014.27 1013.86 1013.50 1013.09 1012.66
1013.16 1014.81 1015.95 1015.89 1015.97 1015.94 1015.53 1015.86 1016.48 1016.77 1016.88 1017.37 1016.93 1014.47 1012.68 1012.51 1012.91 1012.99 1013.48 1013.89 1014.06 1014.13 1014.33 1014.74 1014.89 1014.99 1015.27 1015.41 1015.38 1015.42 1015.50 1015.57 1015.70 1015.54 1015.57 1015.49 1015.21 1014.90 1014.59 1014.20 1013.78 1013.27 1012.73 1012.24
1012.41 1013.92 1015.37 1016.25 1016.71 1016.18 1015.55 1015.37 1015.54 1015.65 1016.01 1015.97 1015.79 1012.98 1012.41 1012.40 1012.70 1012.91 1013.22 1013.44 1013.71 1014.02 1014.41 1014.66 1014.89 1015.02 1015.16 1015.36 1015.44 1015.51 1015.50 1015.60 1015.62 1015.64 1015.75 1015.60 1015.41 1015.16 1014.80 1014.30 1013.80 1013.32 1012.76 1012.13
1011.39 1012.39 1012.65 1013.00 1012.62 1013.67 1014.80 1014.36 1014.62 1014.99 1015.21 1014.18 1014.03 1012.78 1012.08 1012.12 1012.17 1012.32 1012.75 1012.98 1013.53 1013.88 1014.14 1014.33 1014.69 1014.72 1014.81 1015.03 1015.20 1015.31 1015.29 1015.35 1015.48 1015.61 1015.73 1015.70 1015.49 1015.17 1014.83 1014.45 1014.06 1013.53 1012.91 1012.22
1011.17 1011.79 1012.71 1012.74 1012.85 1012.75 1013.01 1013.39 1013.82 1014.21 1013.36 1013.54 1011.94 1012.29 1010.66 1010.33 1011.54 1011.90 1012.18 1012.81 1013.33 1013.67 1013.81 1013.82 1013.99 1014.29 1014.20 1014.46 1014.90 1014.99 1015.07 1015.15 1015.25 1015.43 1015.51 1015.41 1015.21 1014.95 1014.70 1014.38 1014.01 1013.48 1012.91 1012.17
1010.87 1011.20 1012.00 1012.96 1013.08 1013.00 1012.99 1013.22 1013.61 1013.32 1012.56 1012.20 1011.59 1010.92 1009.24 1009.03 1011.09 1011.58 1011.89 1012.45 1012.73 1012.44 1012.53 1012.45 1012.93 1013.18 1013.31 1013.65 1014.14 1014.54 1014.85 1014.97 1015.09 1015.33 1015.32 1015.12 1014.94 1014.69 1014.52 1014.18 1013.80 1013.28 1012.60 1011.96
1010.29 1010.97 1012.00 1012.17 1012.96 1013.43 1013.28 1012.25 1011.38 1011.30 1011.18 1010.46 1010.36 1008.70 1008.14 1009.08 1010.33 1010.63 1011.30 1011.62 1011.55 1011.13 1011.16 1011.76 1012.05 1012.29 1012.69 1013.06 1013.49 1014.17 1014.42 1014.68 1014.93 1015.09 1015.09 1014.91 1014.73 1014.57 1014.39 1014.03 1013.63 1013.17 1012.45 1011.76
1009.66 1011.05 1011.92 1012.37 1013.14 1012.37 1010.73 1010.32 1010.62 1010.59 1009.85 1009.75 1009.24 1008.05 1008.61 1009.09 1008.92 1009.63 1010.00 1009.75 1010.05 1010.64 1010.71 1010.76 1011.16 1011.64 1012.21 1012.46 1012.92 1013.39 1013.99 1014.31 1014.58 1014.65 1014.81 1014.58 1014.39 1014.11 1013.81 1013.66 1013.25 1012.80 1012.18 1011.63
1009.58 1010.71 1012.03 1012.53 1012.08 1011.70 1010.92 1009.77 1009.30 1009.50 1008.44 1008.60 1008.59 1008.23 1008.56 1008.63 1008.82 1008.94 1008.10 1008.85 1009.43 1009.42 1009.71 1009.93 1010.30 1010.94 1011.49 1011.93 1012.31 1013.01 1013.58 1013.80 1014.17 1014.21 1014.11 1013.91 1013.73 1013.39 1013.14 1012.89 1012.49 1012.08 1011.65 1011.11
1010.08 1010.21 1011.14 1012.05 1011.67 1011.10 1008.75 1008.14 1008.21 1009.28 1008.24 1007.26 1008.23 1007.87 1007.26 1007.90 1009.20 1007.08 1008.20 1008.52 1008.80 1008.98 1009.19 1009.61 1010.14 1010.72 1011.26 1011.59 1012.05 1012.67 1013.20 1013.48 1013.72 1013.24 1013.09 1012.97 1012.87 1012.68 1012.45 1012.20 1011.90 1011.37 1010.94 1010.16
1009.99 1009.60 1009.93 1010.46 1010.81 1010.84 1008.90 1008.05 1008.38 1009.11 1006.85 1006.07 1006.73 1007.15 1007.63 1008.28 1008.03 1007.61 1008.11 1008.43 1008.54 1008.99 1009.42 1009.92 1010.66 1011.20 1011.41 1011.66 1012.12 1012.69 1012.91 1013.07 1012.48 1012.33 1012.17 1012.05 1011.82 1011.64 1011.39 1011.04 1010.86 1010.45 1009.94 1009.25
1008.83 1009.55 1009.90 1010.73 1010.74 1009.87 1007.64 1008.31 1007.67 1006.81 1006.87 1007.01 1007.35 1007.77 1008.02 1008.26 1008.55 1008.69 1008.97 1009.48 1009.83 1010.21 1010.70 1011.13 1011.48 1011.75 1011.84 1011.99 1012.31 1012.45 1012.42 1011.90 1011.78 1011.54 1011.36 1011.11 1010.90 1010.66 1010.49 1010.21 1009.62 1009.28 1008.85 1008.16
1008.56 1007.81 1008.28 1008.45 1007.72 1007.17 1006.86 1006.79 1007.02 1007.21 1007.87 1008.55 1008.75 1009.30 1009.33 1009.80 1010.33 1010.33 1010.82 1011.21 1011.60 1011.82 1011.89 1011.97 1012.15 1012.08 1011.90 1011.97 1012.07 1012.01 1011.80 1011.68 1011.31 1010.99 1010.56 1010.20 1009.93 1009.77 1009.35 1009.11 1008.54 1008.14 1007.88 1007.23
1007.48 1008.05 1008.25 1008.17 1007.37 1007.45 1007.64 1007.99 1008.91 1009.24 1009.75 1010.09 1010.35 1010.75 1011.13 1011.77 1012.26 1012.43 1012.49 1012.64 1012.66 1012.57 1012.59 1012.65 1012.71 1012.67 1012.71 1012.45 1012.29 1012.07 1011.78 1011.56 1011.08 1010.34 1009.72 1009.28 1008.85 1008.37 1008.25 1007.91 1007.65 1007.12 1006.63 1006.09
1007.64 1008.47 1008.86 1008.69 1008.27 1008.52 1009.67 1010.75 1011.12 1011.56 1011.98 1012.49 1012.70 1012.93 1013.65 1013.61 1013.97 1014.38 1014.37 1014.22 1014.24 1014.22 1013.96 1013.85 1013.79 1013.58 1013.31 1013.08 1012.77 1012.44 1011.99 1011.56 1010.91 1010.04 1009.15 1008.41 1007.89 1007.37 1006.76 1006.47 1006.20 1005.73 1004.78 1004.66
1009.47 1009.87 1009.67 1009.36 1009.72 1010.08 1012.06 1013.06 1013.05 1013.24 1013.97 1014.39 1014.48 1014.81 1015.37 1015.29 1015.65 1015.97 1016.03 1016.02 1015.87 1015.61 1015.41 1015.16 1014.77 1014.33 1013.89 1013.60 1013.20 1012.92 1012.52 1012.05 1011.16 1009.78 1008.79 1007.91 1007.14 1006.36 1005.82 1005.17 1004.12 1003.93 1003.15 1002.62
Wind_Speed
5 6 16 10 8 5 5 5 7 3 9 8 9 7 12 4 5 10 10 8 9 9 8 7 8 8 9 8 12 13 13 12 10 9 8 7 11 8 7 8 8 9 10 11
5 15 6 9 8 8 9 6 5 5 5 4 4 7 8 11 8 8 10 12 10 7 8 10 8 8 8 10 11 11 14 13 13 11 9 8 8 7 7 7 9 11 12 12
9 4 14 12 10 13 9 7 4 5 5 2 1 9 9 9 12 16 12 11 8 11 10 9 8 6 5 6 8 13 16 16 14 13 6 3 1 2 5 8 9 12 13 13
11 9 16 13 16 10 13 7 5 2 2 5 3 9 5 6 10 7 13 14 14 11 9 8 7 7 7 6 7 8 8 10 12 13 9 12 10 11 11 10 9 10 12 15
9 15 14 15 11 10 8 8 8 4 2 2 0 5 6 3 5 10 10 10 13 15 9 9 2 4 5 5 5 3 2 3 6 10 13 10 11 9 8 7 8 11 11 14
8 7 18 9 12 12 8 7 6 4 4 10 8 8 6 7 15 9 6 6 9 9 4 8 5 5 5 5 7 6 6 4 1 2 5 8 12 12 9 8 8 8 9 10
5 2 2 8 9 5 12 11 2 4 5 9 8 9 15 5 8 6 6 3 5 9 9 7 7 6 6 7 7 6 7 5 6 5 3 3 7 9 13 13 10 11 7 9
13 11 8 5 8 10 17 13 7 9 6 3 8 11 8 11 7 2 4 8 8 8 6 7 7 6 6 5 5 5 5 5 5 6 7 6 5 3 5 9 10 10 11 10
14 10 2 4 4 15 8 10 8 5 3 3 6 6 7 6 8 4 6 7 8 8 7 8 6 5 3 2 2 2 4 5 5 5 6 7 6 6 5 7 6 8 12 11
6 4 4 7 3 3 12 8 6 4 4 4 5 5 8 4 10 10 8 8 9 7 8 6 4 4 3 4 3 4 3 3 3 4 5 5 7 7 7 6 7 8 10 12
6 5 2 6 10 12 5 7 6 5 6 7 2 8 9 14 8 10 5 10 10 9 8 6 5 4 4 2 3 2 3 4 6 6 5 6 7 8 7 6 7 8 9 10
7 4 5 11 2 2 13 13 13 9 12 6 2 9 2 9 8 7 8 9 8 8 8 7 7 5 4 1 1 2 3 5 4 5 6 7 7 7 7 8 10 9 10 10
13 6 5 3 1 2 9 14 14 16 3 13 11 14 12 7 6 8 14 11 9 8 8 7 6 6 5 3 0 1 2 3 4 5 6 7 7 7 9 10 12 12 12 12
19 7 16 15 18 9 14 23 21 17 14 17 15 21 15 8 7 5 9 12 9 9 9 8 7 8 7 7 5 3 1 2 2 4 5 6 7 8 9 10 11 12 13 13
14 15 11 15 1 17 20 22 23 25 24 18 25 19 26 22 11 10 9 6 9 8 10 10 9 9 8 7 5 3 2 2 1 3 5 6 6 6 7 9 10 12 13 13
7 10 16 9 4 2 11 16 19 25 27 24 22 20 28 25 6 9 10 10 10 12 11 13 11 10 9 8 7 5 4 4 1 3 6 6 6 6 7 9 11 12 13 14
14 10 7 15 7 4 8 19 27 28 26 26 25 33 27 17 9 12 8 14 16 16 15 9 12 10 9 8 8 7 6 3 2 5 6 7 7 7 7 7 9 11 13 13
14 17 7 5 7 20 15 9 15 22 18 25 26 23 18 20 18 6 10 19 14 9 12 12 9 8 8 7 7 5 6 5 4 6 6 7 7 8 7 7 8 9 10 12
12 14 5 9 14 4 5 10 15 16 24 19 22 25 21 17 7 11 13 4 11 13 9 9 9 8 8 8 7 7 6 5 4 8 7 8 8 8 7 8 8 9 10 11
11 16 11 4 8 13 9 8 10 6 19 15 17 21 24 10 7 21 5 9 11 9 7 8 8 6 7 7 6 7 8 5 8 8 8 7 7 8 9 9 10 10 9 12
8 6 12 5 3 9 9 6 12 9 9 7 14 17 13 10 14 12 5 6 5 3 4 7 7 6 5 3 3 6 6 8 9 8 8 8 8 8 8 10 8 10 11 12
8 8 6 4 3 14 9 7 18 8 3 6 4 1 4 4 1 1 4 3 6 7 4 5 3 1 3 4 4 7 7 8 8 8 10 10 9 7 6 10 11 10 8 12
4 8 8 11 9 2 7 5 1 4 5 3 7 4 7 6 6 7 7 9 7 8 7 6 5 7 6 5 4 7 7 8 9 11 13 13 10 8 8 10 13 11 10 10
4 2 3 4 4 5 7 3 10 9 9 9 10 10 10 7 9 8 8 9 9 9 8 6 9 9 7 7 7 8 9 7 11 15 16 14 14 14 11 10 10 12 12 11
4 8 6 4 3 5 12 11 5 12 12 12 10 12 11 9 7 7 7 8 7 8 9 9 10 11 12 9 8 7 9 10 14 16 16 16 13 14 13 12 12 13 15 14
4 0 6 5 4 3 7 7 10 14 12 11 9 7 6 6 5 5 5 5 6 7 9 11 12 12 11 10 12 11 12 13 16 18 15 14 13 12 12 13 15 22 29 31
Wind_Direction
199 171 199 181 183 195 168 185 209 246 246 212 226 219 250 253 250 270 274 260 263 262 260 239 234 222 201 199 189 191 185 188 183 194 197 205 216 218 222 219 212 204 209 204
166 217 183 170 195 202 237 236 247 285 278 187 264 263 245 272 249 222 246 255 238 243 263 267 257 235 220 199 197 188 193 185 193 195 202 207 203 216 220 217 214 211 209 206
198 184 169 193 189 205 218 213 184 232 323 290 311 267 242 249 258 255 240 246 238 216 234 248 253 241 245 242 228 192 194 191 194 199 187 187 187 230 211 212 218 216 211 211
223 218 193 186 206 186 214 182 202 187 117 235 62 288 277 269 267 246 244 232 231 230 235 237 253 255 239 247 244 219 196 181 195 189 190 201 209 219 231 232 230 224 213 214
200 178 194 210 195 172 209 170 187 175 188 8 266 312 270 252 281 267 249 240 221 224 216 234 18 111 82 65 64 72 201 236 204 188 199 202 215 229 237 227 221 219 221 220
210 193 190 180 184 182 151 89 45 66 86 258 199 195 213 213 229 255 261 252 218 216 126 121 134 110 85 79 56 40 43 40 30 201 218 222 223 225 230 230 227 227 224 221
203 206 296 150 148 144 166 139 121 203 214 234 189 196 257 277 269 223 172 137 114 121 140 136 104 80 69 64 43 33 33 18 18 18 355 272 251 242 242 240 236 235 225 223
182 211 182 186 172 174 184 177 161 189 203 225 145 230 250 219 235 148 211 151 121 120 117 109 105 93 81 59 40 30 21 4 356 345 326 321 310 271 268 256 249 247 240 230
188 224 126 167 147 153 189 200 173 110 21 65 219 298 315 253 257 229 178 135 141 139 138 133 135 126 76 42 43 32 355 334 327 313 307 303 297 298 286 277 271 273 260 250
197 149 199 192 127 213 174 139 192 188 164 246 263 247 230 235 228 249 221 202 169 165 148 142 95 89 78 89 49 35 13 319 318 339 331 313 302 294 288 288 286 282 283 279
170 115 176 135 211 170 144 185 200 156 173 194 231 250 208 211 203 208 185 162 167 171 151 133 131 125 105 86 79 33 24 19 2 359 340 341 322 309 297 285 278 279 285 281
186 99 166 195 17 325 202 195 189 195 214 219 183 258 241 149 160 144 166 176 182 170 152 148 146 135 124 134 1 30 32 40 9 358 357 339 327 323 320 314 305 290 286 289
168 177 133 143 306 317 209 206 206 228 110 204 207 247 238 199 200 190 174 194 182 160 157 157 149 166 170 184 238 57 52 22 13 17 353 335 332 330 325 324 324 317 307 301
166 158 204 201 214 147 196 215 215 216 227 225 222 245 241 251 192 196 193 189 179 181 168 184 182 186 185 186 189 176 30 20 13 9 347 325 319 323 323 321 320 318 315 308
164 215 196 222 144 188 199 206 206 211 223 214 230 224 249 237 202 203 197 169 175 183 200 202 198 194 187 174 185 186 197 280 220 354 331 307 301 303 309 316 316 314 311 306
195 217 211 211 149 141 216 212 205 217 227 230 241 242 242 253 178 211 206 175 187 210 217 211 198 192 178 178 188 193 211 239 198 315 294 287 293 299 303 312 315 313 310 309
182 192 163 227 179 105 245 208 211 217 225 218 223 231 238 252 195 207 193 186 210 216 220 205 205 190 182 180 184 191 212 201 259 276 279 281 284 284 284 295 306 307 308 309
178 200 196 222 162 224 232 209 216 219 231 227 240 246 243 243 256 220 197 209 219 226 220 215 197 185 185 175 178 174 196 207 243 274 269 270 267 262 267 275 283 291 302 306
185 183 192 213 220 332 261 222 184 183 238 220 225 242 247 246 235 254 226 161 206 224 218 215 198 180 173 176 185 183 214 221 260 264 259 255 252 262 266 269 274 275 284 288
195 197 205 172 192 213 245 177 150 119 260 172 205 231 234 233 220 252 226 195 230 230 215 206 187 155 159 196 185 180 222 231 257 259 252 249 249 253 266 269 277 276 263 275
165 190 209 184 183 275 242 137 132 145 248 191 198 231 243 217 228 262 198 197 202 222 154 114 123 159 197 220 176 221 246 250 255 260 263 260 251 253 246 271 269 269 271 277
168 161 188 140 147 257 179 151 182 198 171 156 136 112 211 240 14 259 216 88 79 89 67 59 83 179 273 266 222 249 252 256 264 266 270 265 256 250 253 267 282 278 268 275
185 190 182 186 208 220 196 176 198 118 115 66 99 80 83 74 36 53 38 38 25 11 352 351 345 323 317 306 284 287 271 278 279 280 280 277 267 257 257 270 282 286 277 271
165 232 211 102 234 195 180 51 39 40 68 50 47 56 51 65 29 33 24 10 1 357 355 355 347 334 315 307 296 277 293 286 284 284 284 283 279 278 266 267 270 272 270 267
164 148 176 284 266 85 70 44 38 67 60 53 54 57 45 39 26 8 348 344 342 335 332 337 325 311 303 302 293 289 297 299 292 287 285 281 275 274 278 265 263 262 262 254
342 241 193 210 42 27 67 51 54 64 53 43 38 32 39 37 18 5 334 328 320 322 315 300 293 291 295 302 302 306 308 305 295 289 286 281 279 275 272 272 278 263 263 262